[[{"header":{"parameterUnit":"m.s-1","parameterCategory":2,"la1":30.2991,"la2":30.254,"lo1":-89.0895,"lo2":-89.0444,"dy":0.0017,"dx":0.0017,"nx":28,"ny":28,"refTime":"2024-04-22T21:00:00:Z","depth":"0","parameterNumber":2,"parameterNumberName":"U-component_of_CURRENTS"},"data":[0,0,0,0,0,0,0,0,0,0,0,0,0,0,0,0,0,0,0,0,0,0,0,0,0,0,0,0,0,0,0,0,0,0,0,0,0,0,0,0,0,0,0,0,0,0,0,0,0,0,0,0,0,0,0,0,0,0,0.1765,0.1766,0,0.1769,0.1768,0.1768,0.1781,0.1782,0.1783,0.1784,0.1791,0.179,0.179,0,0,0,0,0,0,0,0,0,0,0,0,0,0.1775,0.1774,0.1765,0.1766,0.1767,0.1769,0.1768,0.1768,0.1781,0.1782,0.1783,0.1784,0.1791,0.179,0.179,0,0,0,0,0,0,0,0,0,0,0,0,0,0.1767,0.1774,0.1765,0.1779,0.178,0.1769,0.1768,0.1768,0.178,0.1782,0.1783,0.1784,0.1791,0.179,0.1789,0.1755,0,0,0.1786,0.1786,0,0,0,0,0,0,0,0,0.1768,0.1766,0.1776,0.1778,0.178,0.1782,0.1775,0.1766,0.178,0.1773,0.1784,0.1785,0.1792,0.1791,0.1778,0.1756,0.1756,0.1786,0.1786,0.1785,0.1785,0,0,0,0,0,0,0,0.1768,0.1766,0.176,0.1777,0.1779,0.1787,0.1786,0.1773,0.1769,0.1774,0.1776,0.1787,0.1792,0.1779,0.1779,0.1756,0.1786,0.1785,0.1785,0.1784,0.1759,0.1759,0,0,0,0,0,0,0.178,0.1766,0.176,0.1761,0.1785,0.1786,0.1785,0.1774,0.1769,0.1772,0.1786,0.1788,0.178,0.178,0.1779,0.179,0.1785,0.1784,0.1784,0.1759,0.1759,0.1759,0,0,0,0,0,0,0.178,0.1778,0.176,0.1771,0.177,0.1785,0.1772,0.1774,0.1771,0.178,0.1782,0.1784,0.1781,0.1781,0.1777,0.1789,0.1784,0.1783,0.1759,0.1759,0.1759,0.1779,0,0,0,0,0,0,0.1779,0.1777,0.1766,0.1771,0.177,0.1751,0.1772,0.1773,0.1778,0.1781,0.1778,0.178,0.1782,0.1778,0.1776,0.1788,0.1782,0.1759,0.1759,0.1759,0.1779,0.178,0.1781,0,0,0,0,0,0.1779,0.1759,0.1765,0.1764,0.1755,0.1751,0.1749,0.1762,0.1777,0.1765,0.1775,0.1781,0.1776,0.1777,0.1774,0.1786,0.1759,0.1759,0.1759,0.1778,0.178,0.1781,0,0,0,0,0,0,0.1752,0.1759,0.1765,0.1746,0.1751,0.1756,0.175,0.1761,0.1755,0.1763,0.1772,0.1773,0.1779,0.1771,0.1772,0.1778,0.1772,0.1771,0.1787,0.1788,0.179,0.1789,0.1781,0,0,0,0,0,0.1743,0.173,0.1741,0.1725,0.1729,0.1739,0.1739,0.1748,0.1752,0.1751,0.1757,0.1763,0.1771,0.1772,0.1771,0.1763,0.1836,0.177,0.1771,0.1772,0.1769,0.1867,0.1878,0.1759,0.1759,0.1759,0,0,0.1726,0.1733,0.1723,0.172,0.1724,0.1728,0.174,0.174,0.1747,0.1752,0.1756,0.1764,0.177,0.1773,0.1775,0.1771,0.1862,0.1772,0.1773,0.177,0.1869,0.1881,0.1892,0.1758,0.1758,0.1758,0,0,0.1705,0.1695,0.1688,0.1693,0.1707,0.1713,0.1717,0.1724,0.173,0.1733,0.175,0.1758,0.1763,0.177,0.1776,0.1776,0.1867,0.1785,0.1788,0.1884,0.1895,0.1906,0.2098,0.2126,0.1784,0.1784,0.1784,0,0.1687,0.1687,0.1684,0.1689,0.1702,0.1711,0.1718,0.1716,0.1723,0.1741,0.1739,0.1781,0.1762,0.1797,0.1785,0.1779,0.189,0.1786,0.1889,0.19,0.1911,0.2105,0.2135,0.1785,0.1784,0.1784,0.1784,0,0.1674,0.1678,0.1676,0.1689,0.169,0.1695,0.1707,0.1713,0.1731,0.1748,0.1787,0.1779,0.182,0.1803,0.1784,0.1847,0.1928,0.1887,0.1893,0.1925,0.2128,0.2159,0.1786,0.1786,0.1785,0.1785,0,0,0.1634,0.1661,0.1663,0.1685,0.1697,0.1701,0.1712,0.1739,0.1786,0.1784,0.1865,0.1824,0.1855,0.1861,0.186,0.1897,0.2062,0.1916,0.1921,0.2123,0.238,0.2493,0.2539,0.2057,0.206,0.2063,0.2523,0,0.1635,0.1659,0.1663,0.1687,0.1709,0.1722,0.1747,0.1769,0.1803,0.1879,0.1889,0.1964,0.1874,0.1932,0.1946,0.205,0.2132,0.1947,0.2303,0.2315,0.2422,0.2571,0.255,0.2961,0.2554,0.2559,0.2563,0,0.1642,0.166,0.1687,0.1734,0.1743,0.1748,0.1816,0.1842,0.1929,0.1975,0.2038,0.209,0.2176,0.2088,0.229,0.2196,0.2279,0.2336,0.2355,0.2463,0.2482,0.2844,0.3033,0.2903,0.2611,0.2607,0.2604,0,0.1676,0.1687,0.1715,0.1725,0.1767,0.178,0.1804,0.1871,0.1952,0.2072,0.2193,0.2273,0.2412,0.2476,0.2599,0.2479,0.2865,0.2726,0.2919,0.2933,0.2982,0.2993,0.3088,0.286,0.2859,0.2858,0.2857,0,0.1717,0.1748,0.1726,0.1759,0.181,0.1808,0.1904,0.1948,0.2074,0.2224,0.2264,0.2444,0.251,0.273,0.2749,0.3013,0.3021,0.2983,0.3059,0.2998,0.3004,0.2941,0.2832,0.2875,0.2872,0.2868,0.2865,0,0.1817,0.1788,0.1845,0.1853,0.1848,0.1901,0.1995,0.2095,0.2184,0.2404,0.2482,0.2683,0.2969,0.3089,0.3299,0.3292,0.3403,0.3535,0.3518,0.3578,0.3538,0.3432,0.3528,0.3421,0.3822,0.3827,0.3832,0,0.1904,0.1932,0.1941,0.1971,0.198,0.2035,0.2111,0.2171,0.229,0.256,0.2702,0.303,0.3234,0.3653,0.3754,0.3958,0.3692,0.4036,0.3719,0.3601,0.3537,0.3295,0.3174,0.385,0.3855,0.3858,0.3861,0,0.2077,0.206,0.2086,0.2134,0.2178,0.2244,0.2326,0.2417,0.2539,0.2699,0.2937,0.311,0.3562,0.3771,0.4088,0.4164,0.385,0.4115,0.3973,0.3573,0.3335,0.3248,0.3543,0.3893,0.389,0.3888,0.3886,0.3885,0.2204,0.2235,0.2225,0.2274,0.2331,0.237,0.2402,0.2504,0.2627,0.2795,0.3024,0.3244,0.3662,0.4073,0.4168,0.4306,0.4089,0.4148,0.4057,0.3842,0.3619,0.4039,0.4446,0.4446,0.4446,0.4446,0.4446,0,0.2275,0.227,0.2358,0.2345,0.2402,0.2407,0.2489,0.2497,0.2564,0.2807,0.2957,0.3382,0.369,0.3994,0.4311,0.4231,0.3971,0.4121,0.3712,0.3605,0.4018,0.389,0.4215,0.4215,0.4216,0.4216,0.4216,0.4216,0.2284,0.2309,0.2317,0.2349,0.2367,0.2347,0.2349,0.2383,0.2498,0.2691,0.2905,0.3137,0.3596,0.4038,0.4146,0.4084,0.3695,0.3642,0.3485,0.3709,0.3698,0.3687,0.3537,0.3784,0.3783,0.2951,0.2945,0.294]},{"header":{"parameterUnit":"m.s-1","parameterCategory":2,"la1":30.2991,"la2":30.254,"lo1":-89.0895,"lo2":-89.0444,"dy":0.0017,"dx":0.0017,"nx":28,"ny":28,"refTime":"2024-04-22T21:00:00:Z","depth":"0","parameterNumber":3,"parameterNumberName":"V-component_of_CURRENTS"},"data":[0,0,0,0,0,0,0,0,0,0,0,0,0,0,0,0,0,0,0,0,0,0,0,0,0,0,0,0,0,0,0,0,0,0,0,0,0,0,0,0,0,0,0,0,0,0,0,0,0,0,0,0,0,0,0,0,0,0,-0.0016,-0.0016,0,0.0017,0.0017,0.0018,0.0017,0.0017,0.0016,0.0015,-0.0009,-0.0009,-0.0009,0,0,0,0,0,0,0,0,0,0,0,0,0,-0.005,-0.0049,-0.0016,-0.0016,-0.0016,0.0017,0.0017,0.0018,0.0018,0.0017,0.0016,0.0015,-0.0009,-0.0009,-0.0009,0,0,0,0,0,0,0,0,0,0,0,0,0,-0.0025,-0.0049,-0.0016,-0.0015,-0.0015,0.0017,0.0017,0.0018,0.0018,0.0017,0.0016,0.0015,-0.0009,-0.0009,-0.0009,0.0014,0,0,-0.0008,-0.0008,0,0,0,0,0,0,0,0,-0.0026,-0.0023,-0.0015,-0.0015,-0.0015,0.0009,-0.0003,0.0013,0.0018,0.0009,0.0015,0.0014,-0.0009,-0.0009,0.0005,0.0013,0.0012,-0.0008,-0.0008,-0.0008,-0.0008,0,0,0,0,0,0,0,-0.0028,-0.0024,-0.0,-0.0015,-0.0015,-0.0006,-0.0003,0.0001,0.0007,0.001,0.0009,0.0008,-0.0009,0.0005,0.0004,0.0011,-0.0008,-0.0008,-0.0008,-0.0008,-0.0075,-0.0076,0,0,0,0,0,0,-0.0039,-0.0026,-0.0001,0.0001,-0.0027,-0.0004,-0.0001,0.0005,0.0008,0.0007,0.0009,0.0008,0.0005,0.0004,0.0003,-0.0039,-0.0008,-0.0008,-0.0008,-0.0073,-0.0075,-0.0077,0,0,0,0,0,0,-0.0039,-0.0036,-0.0003,-0.0015,-0.0011,-0.0003,0.0005,0.0006,0.0018,0.0008,0.0006,0.0018,0.0004,0.0003,-0.0013,-0.0038,-0.0008,-0.0008,-0.0071,-0.0073,-0.0076,-0.008,0,0,0,0,0,0,-0.004,-0.0036,-0.0026,-0.0015,-0.001,0.0016,0.0006,0.0008,0.0018,0.0017,0.0015,0.0012,0.0003,-0.0013,-0.0013,-0.0037,-0.0008,-0.0068,-0.0072,-0.0075,-0.0078,-0.0082,-0.0087,0,0,0,0,0,-0.0041,-0.0017,-0.0025,-0.0022,0.0001,0.0017,0.0021,0.0024,0.0019,0.0031,0.0012,0.0012,-0.0036,-0.0013,-0.0013,-0.0038,-0.0067,-0.0071,-0.0075,-0.0076,-0.0082,-0.0087,0,0,0,0,0,0,-0.0008,-0.0015,-0.0024,0.0001,0.0004,0.0015,0.0029,0.0029,0.0028,0.0025,0.0009,0.0005,-0.0028,-0.0031,-0.0006,-0.0073,-0.0059,-0.0063,-0.006,-0.0065,-0.007,-0.0055,-0.0008,0,0,0,0,0,-0.0001,0.0008,0.0001,0.0025,0.002,0.0024,0.0033,0.0036,0.0032,0.0033,0.0013,-0.0013,-0.0041,-0.005,-0.0073,-0.0086,-0.0055,-0.0112,-0.0117,-0.012,-0.0112,-0.0115,-0.0117,-0.009,-0.009,-0.009,0,0,0.0025,0.0018,0.0029,0.0031,0.0033,0.0034,0.0028,0.0045,0.0039,0.0029,0.0006,-0.0023,-0.0051,-0.0084,-0.01,-0.0088,-0.0103,-0.0125,-0.0128,-0.0118,-0.0119,-0.0121,-0.0123,-0.0093,-0.0092,-0.0092,0,0,0.0066,0.0065,0.0074,0.007,0.0064,0.0059,0.0061,0.0054,0.0041,0.0026,-0.0007,-0.0049,-0.0075,-0.0113,-0.0131,-0.0171,-0.013,-0.0189,-0.019,-0.0193,-0.0194,-0.0195,-0.0106,-0.0099,-0.0187,-0.0187,-0.0187,0,0.0097,0.0101,0.0085,0.0082,0.0081,0.0065,0.0073,0.006,0.0046,0.0035,0.0014,-0.005,-0.0091,-0.0127,-0.0169,-0.0179,-0.014,-0.0161,-0.0194,-0.0195,-0.0196,-0.0105,-0.0097,-0.0187,-0.0187,-0.0187,-0.0187,0,0.0134,0.0132,0.0138,0.0117,0.0115,0.0128,0.0093,0.0082,0.0056,0.004,-0.0005,-0.0061,-0.0082,-0.0137,-0.017,-0.021,-0.0162,-0.0199,-0.0169,-0.0198,-0.0101,-0.0092,-0.0188,-0.0188,-0.0188,-0.0188,0,0,0.0234,0.0172,0.0177,0.0174,0.0136,0.0155,0.0119,0.0101,0.0131,0.005,0.0086,-0.0058,-0.0067,-0.0092,-0.0141,-0.0188,-0.0174,-0.0203,-0.0203,-0.0092,-0.0102,-0.0048,-0.0032,-0.0214,-0.0214,-0.0214,-0.001,0,0.0272,0.0274,0.0219,0.0236,0.0246,0.0195,0.0186,0.0166,0.0153,0.0185,0.0088,0.0113,-0.0051,-0.0016,-0.0113,-0.0138,-0.0161,-0.022,-0.011,-0.0105,-0.0038,-0.0027,-0.0049,0.013,-0.0002,-0.0,0.0001,0,0.0351,0.0331,0.0344,0.0318,0.0318,0.0317,0.034,0.0341,0.034,0.0341,0.0306,0.0287,0.022,0.0111,0.001,-0.0012,-0.0065,-0.0113,-0.0106,-0.0052,-0.0039,0.0122,0.015,-0.0164,0.0014,0.0013,0.0012,0,0.0502,0.0441,0.0456,0.0448,0.0405,0.0403,0.0398,0.0398,0.0467,0.0501,0.0609,0.0474,0.055,0.0368,0.0247,0.0149,0.0193,0.0067,0.0071,0.008,0.0084,0.0092,-0.0165,0.0005,0.0004,0.0004,0.0003,0,0.0621,0.0649,0.0527,0.0561,0.0607,0.0536,0.0646,0.0625,0.0702,0.0862,0.074,0.0886,0.0615,0.061,0.0383,0.0303,0.0316,0.0098,0.0121,0.0087,0.0092,-0.0162,-0.0315,0.0012,0.001,0.0008,0.0007,0,0.0863,0.0762,0.0803,0.0722,0.0701,0.0774,0.0835,0.0958,0.0981,0.1214,0.1267,0.1269,0.1253,0.1015,0.084,0.0593,0.0313,0.0416,0.0443,0.0461,0.0077,-0.007,-0.0155,-0.0263,0.0419,0.0422,0.0424,0,0.1008,0.1042,0.0975,0.1009,0.0984,0.1051,0.114,0.113,0.1279,0.1473,0.1633,0.1703,0.1776,0.1558,0.1142,0.0835,0.0515,0.0618,0.0354,0.0073,-0.0075,-0.017,-0.0265,0.0397,0.0398,0.0399,0.04,0,0.1288,0.1249,0.1262,0.1311,0.1371,0.1468,0.1567,0.1702,0.1775,0.1938,0.2162,0.2236,0.2079,0.1764,0.1366,0.109,0.0399,0.0635,0.0302,-0.0146,-0.0222,-0.0317,0.0308,0.0412,0.0411,0.041,0.0409,0.0409,0.1496,0.1554,0.153,0.1591,0.1689,0.1822,0.1919,0.2059,0.2255,0.2448,0.2532,0.2636,0.2187,0.1615,0.1269,0.0518,0.0518,0.0194,0.005,-0.0011,-0.0189,0.0509,0.0641,0.0642,0.0642,0.0642,0.0642,0,0.1641,0.1668,0.1794,0.1821,0.1975,0.1962,0.2155,0.2246,0.2442,0.2674,0.2806,0.2623,0.2051,0.1424,0.0478,-0.0031,-0.0254,-0.0324,-0.0562,-0.0628,-0.0048,-0.0138,-0.012,-0.0119,-0.0119,-0.0119,-0.0118,-0.0118,0.1694,0.178,0.181,0.2006,0.2079,0.2223,0.2313,0.2463,0.2607,0.2795,0.284,0.2883,0.2339,0.0718,-0.0448,-0.0708,-0.112,-0.1111,-0.1299,-0.1054,-0.1021,-0.0991,-0.1121,-0.1309,-0.1311,-0.1859,-0.1865,-0.187]}],[{"header":{"parameterUnit":"m.s-1","parameterCategory":2,"la1":30.2991,"la2":30.254,"lo1":-89.0895,"lo2":-89.0444,"dy":0.0017,"dx":0.0017,"nx":28,"ny":28,"refTime":"2024-04-22T21:00:00:Z","depth":"2","parameterNumber":2,"parameterNumberName":"U-component_of_CURRENTS"},"data":[0,0,0,0,0,0,0,0,0,0,0,0,0,0,0,0,0,0,0,0,0,0,0,0,0,0,0,0,0,0,0,0,0,0,0,0,0,0,0,0,0,0,0,0,0,0,0,0,0,0,0,0,0,0,0,0,0,0,0.1923,0.1924,0,0.1947,0.1947,0.1948,0.1958,0.1959,0.1959,0.1959,0.1955,0.1955,0.1955,0,0,0,0,0,0,0,0,0,0,0,0,0,0.1876,0.1877,0.1923,0.1924,0.1924,0.1947,0.1947,0.1948,0.1958,0.1959,0.1959,0.1959,0.1955,0.1955,0.1955,0,0,0,0,0,0,0,0,0,0,0,0,0,0.1896,0.1877,0.1923,0.1934,0.1935,0.1947,0.1947,0.1948,0.1958,0.1959,0.1959,0.1959,0.1955,0.1955,0.1955,0.1949,0,0,0.1954,0.1953,0,0,0,0,0,0,0,0,0.1895,0.1898,0.1932,0.1933,0.1934,0.1952,0.1929,0.1947,0.1958,0.1948,0.1959,0.1959,0.1952,0.1952,0.1954,0.1949,0.1948,0.1954,0.1953,0.1953,0.1953,0,0,0,0,0,0,0,0.1894,0.1897,0.1931,0.1932,0.1934,0.1933,0.1936,0.1933,0.1947,0.1949,0.195,0.1955,0.1953,0.1955,0.1954,0.1948,0.1954,0.1953,0.1953,0.1953,0.1978,0.1978,0,0,0,0,0,0,0.1895,0.1896,0.193,0.1932,0.1917,0.1934,0.1938,0.1945,0.1948,0.1949,0.1955,0.1956,0.1955,0.1955,0.1954,0.1989,0.1953,0.1953,0.1953,0.1977,0.1978,0.1979,0,0,0,0,0,0,0.1893,0.1897,0.193,0.1915,0.192,0.1935,0.1943,0.1945,0.1956,0.1953,0.1953,0.1965,0.1955,0.1955,0.1965,0.1988,0.1953,0.1952,0.1976,0.1977,0.1978,0.2033,0,0,0,0,0,0,0.1892,0.1897,0.1904,0.1916,0.1921,0.1954,0.1943,0.1945,0.1959,0.196,0.1962,0.1961,0.1955,0.1965,0.1964,0.1987,0.1952,0.1975,0.1976,0.1978,0.203,0.2036,0.2041,0,0,0,0,0,0.189,0.1899,0.1904,0.1909,0.1929,0.1955,0.1958,0.1967,0.196,0.1975,0.1972,0.1961,0.1975,0.1966,0.1964,0.1987,0.1974,0.1976,0.1978,0.2027,0.2035,0.2041,0,0,0,0,0,0,0.1874,0.1901,0.1907,0.1922,0.1945,0.1958,0.1967,0.1972,0.1981,0.1977,0.1969,0.1969,0.1988,0.1977,0.1967,0.1999,0.1974,0.1975,0.2012,0.2018,0.2024,0.2029,0.1952,0,0,0,0,0,0.1876,0.1892,0.1918,0.1929,0.1942,0.1955,0.1965,0.1974,0.1982,0.1987,0.1986,0.1985,0.1993,0.1998,0.1999,0.2013,0.2021,0.2027,0.2033,0.2038,0.2041,0.207,0.2079,0.1985,0.1985,0.1985,0,0,0.1866,0.1887,0.1893,0.1928,0.1941,0.1966,0.1962,0.1982,0.2,0.1983,0.2001,0.2003,0.2,0.2021,0.2028,0.2017,0.2073,0.204,0.2044,0.2045,0.2073,0.2082,0.209,0.1986,0.1986,0.1986,0,0,0.1864,0.1882,0.1899,0.1926,0.1959,0.1973,0.1983,0.2004,0.2014,0.2033,0.2028,0.2047,0.2048,0.2063,0.2067,0.2102,0.21,0.2099,0.2133,0.2162,0.217,0.2177,0.2221,0.2232,0.2104,0.2104,0.2104,0,0.1852,0.1884,0.1908,0.1938,0.1959,0.1979,0.2004,0.202,0.2041,0.2055,0.2045,0.2072,0.2072,0.2108,0.2122,0.2116,0.2132,0.211,0.217,0.2177,0.2184,0.2226,0.2237,0.2107,0.2106,0.2106,0.2106,0,0.187,0.1899,0.1912,0.1958,0.1985,0.2011,0.2042,0.2062,0.2072,0.2091,0.2126,0.2131,0.2149,0.2157,0.2149,0.2198,0.2197,0.2174,0.2155,0.2197,0.2239,0.225,0.2111,0.211,0.2109,0.2108,0,0,0.1823,0.1908,0.1911,0.1943,0.2001,0.2022,0.2058,0.2103,0.2128,0.2151,0.2186,0.2211,0.2218,0.2223,0.2223,0.225,0.2319,0.2233,0.2233,0.2281,0.2397,0.2474,0.2492,0.2304,0.2305,0.2307,0.2417,0,0.1828,0.1891,0.1931,0.1981,0.2016,0.2055,0.2087,0.2129,0.2161,0.2199,0.2223,0.2253,0.2242,0.2253,0.2283,0.2304,0.2345,0.2292,0.2346,0.2348,0.2414,0.2506,0.2226,0.2307,0.2427,0.2429,0.243,0,0.1826,0.1877,0.193,0.2007,0.2023,0.2051,0.2112,0.2146,0.2209,0.2234,0.2278,0.2295,0.2349,0.232,0.2399,0.2365,0.2389,0.2406,0.241,0.2467,0.2445,0.228,0.2321,0.2447,0.2446,0.2444,0.2443,0,0.1783,0.1868,0.1912,0.1939,0.2026,0.2049,0.2088,0.2154,0.2197,0.2259,0.2305,0.2353,0.2394,0.2422,0.2482,0.2434,0.2575,0.2508,0.2606,0.2611,0.2378,0.2362,0.2569,0.2569,0.2568,0.2568,0.2568,0,0.1771,0.1803,0.1896,0.1919,0.1967,0.203,0.2083,0.2125,0.2207,0.2281,0.232,0.2398,0.2421,0.2507,0.252,0.2634,0.2615,0.2645,0.2657,0.2394,0.2379,0.2489,0.2478,0.2572,0.2571,0.257,0.257,0,0.1715,0.1776,0.1828,0.192,0.1947,0.1976,0.2081,0.2125,0.2207,0.2306,0.2331,0.245,0.2581,0.2637,0.2713,0.2715,0.2784,0.2824,0.254,0.252,0.2781,0.2771,0.2922,0.2926,0.2929,0.2932,0.2934,0,0.1697,0.1719,0.181,0.184,0.1881,0.1947,0.1994,0.2098,0.2167,0.2356,0.2407,0.2572,0.2695,0.287,0.2848,0.291,0.2945,0.2736,0.2603,0.2827,0.2823,0.2808,0.2794,0.2302,0.2299,0.2296,0.2294,0,0.1657,0.1681,0.1724,0.1791,0.1842,0.1912,0.2,0.2058,0.2203,0.2317,0.2505,0.2622,0.2782,0.274,0.284,0.2825,0.2698,0.2697,0.2984,0.2295,0.2262,0.2252,0.2254,0.2272,0.2274,0.2276,0.2277,0.2278,0.161,0.1627,0.168,0.1739,0.18,0.1866,0.19,0.2023,0.2143,0.2255,0.2439,0.2522,0.2562,0.2578,0.2555,0.2523,0.269,0.2553,0.255,0.2552,0.25,0.2479,0.252,0.2523,0.2526,0.2529,0.2531,0,0.1554,0.1586,0.1634,0.1698,0.1733,0.1797,0.1896,0.1914,0.203,0.2138,0.225,0.2099,0.2127,0.2209,0.2104,0.2158,0.2008,0.2112,0.1858,0.1885,0.1907,0.1811,0.1653,0.165,0.1648,0.1646,0,0,0.1518,0.1537,0.1572,0.1612,0.1662,0.1686,0.1723,0.1768,0.1835,0.182,0.1824,0.1933,0.2117,0.1812,0.1809,0.1729,0.1778,0.1665,0.2366,0.209,0.2109,0.2167,0.2054,0,0,0,0,0]},{"header":{"parameterUnit":"m.s-1","parameterCategory":2,"la1":30.2991,"la2":30.254,"lo1":-89.0895,"lo2":-89.0444,"dy":0.0017,"dx":0.0017,"nx":28,"ny":28,"refTime":"2024-04-22T21:00:00:Z","depth":"2","parameterNumber":3,"parameterNumberName":"V-component_of_CURRENTS"},"data":[0,0,0,0,0,0,0,0,0,0,0,0,0,0,0,0,0,0,0,0,0,0,0,0,0,0,0,0,0,0,0,0,0,0,0,0,0,0,0,0,0,0,0,0,0,0,0,0,0,0,0,0,0,0,0,0,0,0,-0.0479,-0.048,0,-0.0554,-0.0555,-0.0556,-0.0615,-0.0616,-0.0616,-0.0617,-0.0728,-0.073,-0.0733,0,0,0,0,0,0,0,0,0,0,0,0,0,-0.0348,-0.0351,-0.0479,-0.048,-0.0481,-0.0554,-0.0555,-0.0556,-0.0615,-0.0616,-0.0617,-0.0617,-0.0727,-0.073,-0.0733,0,0,0,0,0,0,0,0,0,0,0,0,0,-0.0413,-0.0352,-0.0479,-0.0519,-0.0523,-0.0554,-0.0555,-0.0557,-0.0615,-0.0616,-0.0617,-0.0618,-0.0726,-0.073,-0.0733,-0.0741,0,0,-0.0745,-0.0746,0,0,0,0,0,0,0,0,-0.041,-0.0418,-0.0512,-0.0516,-0.0521,-0.0576,-0.055,-0.062,-0.0615,-0.0581,-0.0617,-0.0618,-0.0679,-0.0687,-0.07,-0.0746,-0.0751,-0.0745,-0.0747,-0.0749,-0.075,0,0,0,0,0,0,0,-0.0405,-0.0415,-0.051,-0.0513,-0.0518,-0.052,-0.053,-0.0563,-0.0626,-0.0584,-0.0588,-0.0595,-0.0682,-0.0696,-0.0703,-0.0752,-0.0745,-0.0748,-0.0751,-0.0752,-0.0824,-0.0823,0,0,0,0,0,0,-0.0396,-0.0411,-0.0507,-0.0512,-0.0465,-0.0521,-0.0533,-0.0558,-0.0625,-0.0636,-0.0595,-0.0598,-0.0689,-0.0699,-0.0707,-0.0731,-0.0749,-0.0752,-0.0754,-0.0824,-0.0824,-0.0823,0,0,0,0,0,0,-0.0393,-0.0405,-0.0504,-0.0461,-0.0474,-0.0523,-0.055,-0.0559,-0.059,-0.0633,-0.0644,-0.0618,-0.069,-0.0702,-0.0744,-0.0735,-0.0754,-0.0757,-0.0824,-0.0824,-0.0823,-0.0771,0,0,0,0,0,0,-0.0389,-0.0404,-0.0424,-0.0461,-0.0476,-0.0532,-0.055,-0.056,-0.0592,-0.0597,-0.0656,-0.0666,-0.0692,-0.0738,-0.0748,-0.0741,-0.076,-0.0825,-0.0824,-0.0824,-0.0773,-0.0769,-0.0765,0,0,0,0,0,-0.0385,-0.0409,-0.0425,-0.0436,-0.0502,-0.0532,-0.054,-0.0576,-0.0592,-0.0607,-0.0643,-0.0666,-0.0741,-0.0742,-0.0753,-0.0746,-0.0825,-0.0824,-0.0824,-0.0775,-0.077,-0.0765,0,0,0,0,0,0,-0.0364,-0.0418,-0.0436,-0.0477,-0.0505,-0.0542,-0.0559,-0.0582,-0.0622,-0.0627,-0.067,-0.0683,-0.0714,-0.0739,-0.0739,-0.0764,-0.0783,-0.0785,-0.0743,-0.0738,-0.0734,-0.0726,-0.0763,0,0,0,0,0,-0.0368,-0.0401,-0.0443,-0.0474,-0.0487,-0.0524,-0.0543,-0.0564,-0.0599,-0.0618,-0.0655,-0.0689,-0.0715,-0.0736,-0.0765,-0.0785,-0.0816,-0.0786,-0.0781,-0.0778,-0.0778,-0.0825,-0.0825,-0.0821,-0.0821,-0.0821,0,0,-0.0366,-0.04,-0.0419,-0.0471,-0.0494,-0.0499,-0.0538,-0.0564,-0.0564,-0.0623,-0.0642,-0.0682,-0.0719,-0.0737,-0.0752,-0.0761,-0.0792,-0.0777,-0.0774,-0.0776,-0.0824,-0.0825,-0.0825,-0.082,-0.082,-0.0821,0,0,-0.0361,-0.0409,-0.0426,-0.0441,-0.0475,-0.0493,-0.0502,-0.054,-0.0559,-0.0583,-0.0618,-0.0657,-0.0698,-0.0721,-0.0738,-0.0732,-0.0771,-0.0737,-0.0711,-0.0755,-0.0756,-0.0757,-0.0781,-0.0785,-0.0732,-0.0732,-0.0732,0,-0.0353,-0.0381,-0.0432,-0.0435,-0.0437,-0.0486,-0.0478,-0.0501,-0.0546,-0.056,-0.0582,-0.0649,-0.0686,-0.0708,-0.0704,-0.0723,-0.075,-0.0724,-0.075,-0.0752,-0.0754,-0.0779,-0.0784,-0.073,-0.073,-0.073,-0.073,0,-0.0347,-0.0362,-0.0368,-0.0387,-0.0398,-0.0402,-0.0427,-0.0446,-0.0474,-0.05,-0.0541,-0.0597,-0.0641,-0.0651,-0.0677,-0.0704,-0.0718,-0.0741,-0.0762,-0.0752,-0.0778,-0.0784,-0.0726,-0.0727,-0.0728,-0.0728,0,0,-0.0337,-0.036,-0.0356,-0.0348,-0.0368,-0.0374,-0.0373,-0.0392,-0.0401,-0.045,-0.0469,-0.0522,-0.0573,-0.0595,-0.0638,-0.0676,-0.0712,-0.0712,-0.0715,-0.0733,-0.08,-0.0766,-0.077,-0.0744,-0.0745,-0.0746,-0.0807,0,-0.0309,-0.0298,-0.0315,-0.0287,-0.028,-0.0305,-0.03,-0.0323,-0.0361,-0.0393,-0.0458,-0.0496,-0.0543,-0.0572,-0.0618,-0.0691,-0.0728,-0.0693,-0.0809,-0.0812,-0.0782,-0.0776,-0.0709,-0.0754,-0.0813,-0.0814,-0.0815,0,-0.0289,-0.0283,-0.0254,-0.0238,-0.0237,-0.0226,-0.0232,-0.0235,-0.0289,-0.0321,-0.038,-0.0442,-0.0504,-0.055,-0.0668,-0.0645,-0.0719,-0.0775,-0.0779,-0.0772,-0.079,-0.0778,-0.0764,-0.0826,-0.0825,-0.0824,-0.0823,0,-0.0258,-0.0235,-0.0209,-0.0201,-0.0196,-0.0186,-0.0185,-0.0219,-0.0219,-0.0284,-0.0296,-0.0397,-0.0433,-0.0549,-0.0661,-0.0675,-0.0786,-0.0821,-0.0858,-0.0856,-0.0834,-0.0828,-0.091,-0.091,-0.091,-0.0909,-0.0909,0,-0.0231,-0.0208,-0.0191,-0.0178,-0.014,-0.015,-0.013,-0.015,-0.0174,-0.0159,-0.0261,-0.0267,-0.0437,-0.0519,-0.0644,-0.0754,-0.0776,-0.0851,-0.0872,-0.0811,-0.0802,-0.0896,-0.0894,-0.0912,-0.0911,-0.0911,-0.091,0,-0.0223,-0.0209,-0.0173,-0.0146,-0.013,-0.0109,-0.0078,-0.0068,-0.0092,-0.0075,-0.0088,-0.0173,-0.0269,-0.0427,-0.06,-0.0703,-0.0832,-0.0869,-0.0771,-0.0779,-0.0881,-0.0875,-0.0928,-0.0927,-0.0927,-0.0926,-0.0926,0,-0.0228,-0.0209,-0.0148,-0.0112,-0.01,-0.0062,-0.0033,-0.0035,-0.0011,-0.0,0.0019,-0.0062,-0.0083,-0.0315,-0.052,-0.0718,-0.0789,-0.0802,-0.0821,-0.0869,-0.0884,-0.0879,-0.0874,-0.077,-0.0769,-0.0767,-0.0766,0,-0.0225,-0.0198,-0.016,-0.0084,-0.0036,0.0018,0.0066,0.0106,0.0127,0.0172,0.023,0.0222,0.0025,-0.0144,-0.0423,-0.0561,-0.0768,-0.078,-0.0868,-0.0766,-0.0723,-0.0737,-0.0737,-0.0755,-0.0756,-0.0757,-0.0757,-0.0758,-0.021,-0.0176,-0.0106,-0.0038,0.0024,0.0107,0.0174,0.025,0.0342,0.0453,0.0416,0.0454,0.0199,-0.0098,-0.0353,-0.0628,-0.0654,-0.0759,-0.0763,-0.0768,-0.0728,-0.0686,-0.0703,-0.0703,-0.0704,-0.0705,-0.0705,0,-0.0171,-0.012,-0.0058,0.0042,0.0118,0.0144,0.0255,0.0353,0.0512,0.0611,0.0698,0.0535,0.0332,0.0033,-0.0342,-0.0587,-0.0614,-0.0672,-0.0662,-0.0671,-0.0679,-0.0636,-0.0586,-0.0587,-0.0587,-0.0587,0,0,-0.0134,-0.006,-0.0026,0.0115,0.0188,0.0321,0.0404,0.0565,0.0676,0.082,0.0864,0.084,0.0459,0.0208,-0.0139,-0.0357,-0.0451,-0.0391,-0.0458,-0.0412,-0.0418,-0.0699,-0.0638,0,0,0,0,0]}],[{"header":{"parameterUnit":"m.s-1","parameterCategory":2,"la1":30.2991,"la2":30.254,"lo1":-89.0895,"lo2":-89.0444,"dy":0.0017,"dx":0.0017,"nx":28,"ny":28,"refTime":"2024-04-22T21:00:00:Z","depth":"4","parameterNumber":2,"parameterNumberName":"U-component_of_CURRENTS"},"data":[0,0,0,0,0,0,0,0,0,0,0,0,0,0,0,0,0,0,0,0,0,0,0,0,0,0,0,0,0,0,0,0,0,0,0,0,0,0,0,0,0,0,0,0,0,0,0,0,0,0,0,0,0,0,0,0,0,0,0.1034,0.1035,0,0.1075,0.1075,0.1076,0.1118,0.1119,0.112,0.1121,0.1164,0.1164,0.1165,0,0,0,0,0,0,0,0,0,0,0,0,0,0.0955,0.0956,0.1034,0.1035,0.1036,0.1075,0.1075,0.1076,0.1118,0.1119,0.112,0.1121,0.1164,0.1164,0.1165,0,0,0,0,0,0,0,0,0,0,0,0,0,0.0989,0.0956,0.1034,0.1064,0.1067,0.1075,0.1076,0.1076,0.1118,0.1119,0.1121,0.1122,0.1164,0.1164,0.1165,0.1142,0,0,0.1166,0.1167,0,0,0,0,0,0,0,0,0.0987,0.0991,0.1059,0.1062,0.1066,0.1096,0.1063,0.1099,0.1118,0.1096,0.1121,0.1122,0.1142,0.1145,0.1145,0.1144,0.1146,0.1166,0.1167,0.1167,0.1167,0,0,0,0,0,0,0,0.0985,0.099,0.1047,0.1059,0.1064,0.1062,0.1069,0.107,0.1109,0.1098,0.1102,0.111,0.1144,0.1145,0.1147,0.1147,0.1166,0.1167,0.1167,0.1167,0.1214,0.1215,0,0,0,0,0,0,0.0986,0.0988,0.1046,0.1049,0.1032,0.1063,0.107,0.1082,0.1109,0.1115,0.1109,0.1112,0.1143,0.1146,0.1148,0.121,0.1167,0.1167,0.1168,0.1213,0.1214,0.1215,0,0,0,0,0,0,0.0984,0.0991,0.1045,0.1021,0.1029,0.1064,0.1077,0.1082,0.1113,0.1118,0.1124,0.1138,0.1144,0.1148,0.1172,0.1209,0.1168,0.1168,0.1212,0.1214,0.1215,0.1279,0,0,0,0,0,0,0.0982,0.099,0.1009,0.1022,0.103,0.1067,0.1076,0.1082,0.1116,0.1121,0.1144,0.1148,0.1146,0.1172,0.1173,0.1209,0.1168,0.1211,0.1213,0.1215,0.1275,0.1282,0.1288,0,0,0,0,0,0.0979,0.0997,0.101,0.1018,0.1052,0.1068,0.1072,0.1099,0.1117,0.1131,0.1148,0.1149,0.1184,0.1172,0.1174,0.1211,0.121,0.1212,0.1214,0.1272,0.1281,0.1287,0,0,0,0,0,0,0.0973,0.1003,0.1018,0.1046,0.1065,0.1077,0.1097,0.1113,0.1136,0.115,0.1154,0.1159,0.12,0.1188,0.1176,0.1229,0.12,0.1202,0.1243,0.1251,0.1257,0.1274,0.1169,0,0,0,0,0,0.0979,0.1002,0.1026,0.1049,0.1062,0.1084,0.1099,0.1117,0.1135,0.1149,0.1161,0.1178,0.1203,0.1214,0.1226,0.1246,0.1256,0.1271,0.1278,0.1283,0.1297,0.1327,0.1338,0.1222,0.1222,0.1222,0,0,0.0982,0.1003,0.1016,0.105,0.1067,0.1086,0.1096,0.1127,0.1148,0.1147,0.1182,0.1203,0.1214,0.1246,0.1263,0.1245,0.1325,0.1286,0.129,0.1302,0.1331,0.1342,0.1352,0.1224,0.1224,0.1223,0,0,0.0987,0.102,0.1038,0.1056,0.1092,0.1105,0.112,0.1146,0.1169,0.1202,0.1215,0.1258,0.1277,0.1298,0.1312,0.1355,0.1361,0.136,0.1403,0.1432,0.1442,0.1451,0.1496,0.1509,0.1358,0.1358,0.1358,0,0.0986,0.1018,0.1044,0.1064,0.1074,0.1117,0.1127,0.116,0.119,0.1214,0.1225,0.1294,0.1307,0.1359,0.1384,0.1374,0.1392,0.1375,0.1442,0.1451,0.1459,0.1503,0.1516,0.1361,0.1361,0.1361,0.136,0,0.1,0.1031,0.1043,0.1081,0.1092,0.1115,0.115,0.1194,0.1233,0.1259,0.133,0.1357,0.1402,0.1416,0.142,0.1486,0.1483,0.1451,0.1426,0.1474,0.1518,0.153,0.1366,0.1365,0.1364,0.1363,0,0,0.097,0.104,0.1045,0.1067,0.1101,0.1115,0.1165,0.1215,0.128,0.1322,0.1389,0.1446,0.1479,0.1497,0.1512,0.1543,0.1628,0.1529,0.1529,0.158,0.1713,0.1578,0.1578,0.1606,0.1608,0.161,0.1726,0,0.097,0.1004,0.1036,0.107,0.1081,0.1136,0.1174,0.1229,0.1301,0.1383,0.1438,0.151,0.1503,0.1553,0.1582,0.1625,0.1661,0.1601,0.1652,0.1655,0.1533,0.1587,0.1616,0.1736,0.1738,0.174,0.1742,0,0.0961,0.0985,0.1009,0.1067,0.108,0.1118,0.1206,0.1259,0.1379,0.1429,0.1516,0.1571,0.1658,0.1636,0.1732,0.1695,0.1716,0.1734,0.1738,0.1597,0.1541,0.1671,0.1764,0.1762,0.1761,0.1759,0.1758,0,0.0904,0.0965,0.0986,0.1002,0.1074,0.112,0.1178,0.128,0.133,0.1488,0.1548,0.1647,0.1716,0.1761,0.1793,0.1788,0.187,0.1863,0.1761,0.1753,0.1813,0.1801,0.1919,0.1919,0.1919,0.1919,0.1918,0,0.0877,0.09,0.0983,0.0999,0.1043,0.1104,0.1202,0.1274,0.1386,0.1457,0.158,0.164,0.175,0.1802,0.1826,0.1818,0.1894,0.1788,0.1772,0.1838,0.1828,0.1823,0.181,0.1923,0.1922,0.1921,0.1921,0,0.0816,0.0871,0.0903,0.0989,0.102,0.1061,0.1185,0.1253,0.1377,0.1483,0.153,0.1653,0.1743,0.1805,0.1887,0.1846,0.186,0.1823,0.1904,0.1887,0.1736,0.1725,0.1789,0.1785,0.1782,0.1779,0.1777,0,0.0792,0.0802,0.0879,0.0894,0.0947,0.1038,0.1086,0.1218,0.1279,0.147,0.1482,0.1625,0.1706,0.1704,0.1781,0.1822,0.1784,0.1799,0.1772,0.1743,0.1723,0.1717,0.1711,0.1771,0.1771,0.177,0.1769,0,0.0732,0.0769,0.0798,0.0816,0.0869,0.0935,0.1027,0.1043,0.1215,0.1351,0.1418,0.1497,0.1581,0.1641,0.1653,0.1674,0.1806,0.1765,0.1773,0.1749,0.1723,0.1704,0.1702,0.1758,0.1759,0.176,0.1761,0,0.0688,0.0686,0.0715,0.0733,0.0785,0.0802,0.0873,0.0949,0.1021,0.1228,0.125,0.141,0.1549,0.1562,0.1574,0.1583,0.16,0.1572,0.1591,0.1604,0.1487,0.1423,0.1366,0,0,0,0,0,0.064,0.0625,0.0622,0.0633,0.0678,0.0709,0.0808,0.0886,0.1063,0.1066,0.1155,0.1236,0.1327,0.1389,0.137,0.1507,0.1589,0.1481,0.1561,0.1695,0.1708,0.1585,0,0,0,0,0,0,0.0601,0.06,0.0591,0.0553,0.0541,0.0582,0.0641,0.0745,0.0757,0.0944,0.0975,0.1164,0.1231,0.1313,0.1343,0.1369,0.1397,0.1587,0.1584,0.1688,0.1699,0.171,0.1588,0,0,0,0,0]},{"header":{"parameterUnit":"m.s-1","parameterCategory":2,"la1":30.2991,"la2":30.254,"lo1":-89.0895,"lo2":-89.0444,"dy":0.0017,"dx":0.0017,"nx":28,"ny":28,"refTime":"2024-04-22T21:00:00:Z","depth":"4","parameterNumber":3,"parameterNumberName":"V-component_of_CURRENTS"},"data":[0,0,0,0,0,0,0,0,0,0,0,0,0,0,0,0,0,0,0,0,0,0,0,0,0,0,0,0,0,0,0,0,0,0,0,0,0,0,0,0,0,0,0,0,0,0,0,0,0,0,0,0,0,0,0,0,0,0,-0.0003,-0.0003,0,-0.0032,-0.0032,-0.0033,-0.0056,-0.0057,-0.0057,-0.0057,-0.0093,-0.0093,-0.0094,0,0,0,0,0,0,0,0,0,0,0,0,0,0.0061,0.006,-0.0003,-0.0003,-0.0004,-0.0032,-0.0032,-0.0033,-0.0056,-0.0057,-0.0057,-0.0058,-0.0092,-0.0093,-0.0094,0,0,0,0,0,0,0,0,0,0,0,0,0,0.0034,0.0059,-0.0003,-0.002,-0.0022,-0.0032,-0.0032,-0.0033,-0.0056,-0.0057,-0.0057,-0.0058,-0.0092,-0.0093,-0.0094,-0.0087,0,0,-0.0097,-0.0097,0,0,0,0,0,0,0,0,0.0036,0.0032,-0.0017,-0.0019,-0.0021,-0.0043,-0.0023,-0.0052,-0.0056,-0.0041,-0.0057,-0.0058,-0.0077,-0.0079,-0.0081,-0.0089,-0.009,-0.0097,-0.0097,-0.0097,-0.0098,0,0,0,0,0,0,0,0.0037,0.0033,-0.0013,-0.0018,-0.002,-0.0017,-0.0022,-0.0028,-0.0054,-0.0043,-0.0045,-0.0051,-0.0078,-0.008,-0.0082,-0.0091,-0.0097,-0.0097,-0.0098,-0.0098,-0.0075,-0.0074,0,0,0,0,0,0,0.0037,0.0035,-0.0012,-0.0014,0.0004,-0.0018,-0.0023,-0.0034,-0.0054,-0.0058,-0.005,-0.0052,-0.0078,-0.0081,-0.0083,-0.0055,-0.0097,-0.0098,-0.0099,-0.0076,-0.0075,-0.0074,0,0,0,0,0,0,0.0038,0.0033,-0.001,0.0009,0.0003,-0.0019,-0.003,-0.0034,-0.0042,-0.006,-0.0064,-0.0055,-0.0079,-0.0082,-0.0079,-0.0057,-0.0099,-0.0099,-0.0078,-0.0076,-0.0074,-0.0012,0,0,0,0,0,0,0.004,0.0033,0.0025,0.0009,0.0002,-0.001,-0.003,-0.0034,-0.0045,-0.0047,-0.0065,-0.0069,-0.008,-0.0078,-0.008,-0.0059,-0.01,-0.0079,-0.0077,-0.0075,-0.0016,-0.0009,-0.0002,0,0,0,0,0,0.0042,0.0035,0.0025,0.0019,-0.0008,-0.001,-0.0012,-0.0029,-0.0045,-0.004,-0.0049,-0.0069,-0.0066,-0.0078,-0.0081,-0.006,-0.008,-0.0077,-0.0075,-0.0019,-0.001,-0.0003,0,0,0,0,0,0,0.0053,0.0032,0.002,0.0005,-0.0,-0.0015,-0.0017,-0.0029,-0.0033,-0.0038,-0.0057,-0.006,-0.0049,-0.0063,-0.0075,-0.0046,-0.0075,-0.0073,-0.0031,-0.0024,-0.0017,-0.0006,-0.0101,0,0,0,0,0,0.0053,0.0045,0.0028,0.0017,0.0014,-0.0002,-0.0007,-0.0015,-0.0023,-0.0027,-0.0033,-0.004,-0.004,-0.0039,-0.0042,-0.0028,-0.0062,-0.0015,-0.0009,-0.0003,0.0005,-0.001,-0.0004,-0.0065,-0.0065,-0.0065,0,0,0.0052,0.004,0.0033,0.002,0.0012,0.0024,-0.0006,-0.0009,0.0009,-0.0029,-0.0005,-0.002,-0.0032,-0.0012,-0.0008,-0.0021,-0.0011,0.0,0.0005,0.001,-0.0007,-0.0001,0.0004,-0.0064,-0.0064,-0.0064,0,0,0.006,0.0039,0.0041,0.0044,0.0037,0.0036,0.0036,0.0029,0.0034,0.0048,0.0031,0.0032,0.0031,0.0036,0.0034,0.0075,0.0022,0.0071,0.0116,0.0102,0.0107,0.0111,0.0041,0.0038,0.0078,0.0078,0.0078,0,0.0061,0.006,0.0043,0.0055,0.0067,0.0045,0.0067,0.0072,0.0072,0.0083,0.0064,0.0071,0.0058,0.0085,0.0101,0.0091,0.0052,0.0087,0.011,0.0114,0.0117,0.0044,0.0041,0.0081,0.0081,0.008,0.008,0,0.0075,0.0081,0.0085,0.0099,0.0113,0.0125,0.0136,0.0149,0.0146,0.0149,0.0168,0.0153,0.0153,0.0155,0.014,0.0164,0.0116,0.0117,0.0089,0.0126,0.0047,0.0042,0.0086,0.0085,0.0084,0.0083,0,0,0.0059,0.009,0.0091,0.0114,0.014,0.0152,0.0193,0.0221,0.0234,0.0241,0.0255,0.027,0.0245,0.0242,0.0223,0.0221,0.0196,0.0182,0.018,0.0109,0.0119,0.0085,0.0075,0.02,0.02,0.02,0.0043,0,0.0076,0.0115,0.0131,0.018,0.0205,0.0222,0.0265,0.0289,0.0292,0.0298,0.0292,0.0291,0.0284,0.0268,0.0271,0.0206,0.0191,0.0235,0.0097,0.0091,0.0056,0.0072,0.0202,0.0039,0.0037,0.0036,0.0036,0,0.0081,0.0113,0.0164,0.0229,0.0242,0.0271,0.0321,0.0355,0.0368,0.0366,0.0366,0.0338,0.0326,0.0311,0.024,0.0264,0.0203,0.0159,0.0152,0.01,0.005,0.0002,0.0026,0.0026,0.0027,0.0028,0.0028,0,0.0071,0.0134,0.0179,0.02,0.0269,0.0298,0.0335,0.037,0.0401,0.0391,0.0382,0.0366,0.033,0.0282,0.0189,0.0206,0.0089,0.0094,0.0006,-0.0001,0.0047,0.0045,0.0059,0.0059,0.0059,0.006,0.006,0,0.0075,0.0107,0.0175,0.0193,0.0254,0.0305,0.0353,0.0377,0.041,0.0439,0.0408,0.0397,0.0326,0.025,0.0179,0.0061,0.0075,0.001,-0.0028,0.0071,0.0074,0.004,0.004,0.0054,0.0055,0.0056,0.0057,0,0.0043,0.0086,0.0135,0.0214,0.0243,0.028,0.0365,0.04,0.0422,0.0446,0.0442,0.0399,0.0293,0.02,0.0082,0.0031,-0.007,-0.011,-0.0043,-0.0076,-0.0158,-0.0153,-0.0235,-0.0237,-0.0239,-0.0241,-0.0242,0,0.003,0.0053,0.0133,0.017,0.0202,0.0271,0.0328,0.0393,0.0432,0.0451,0.0459,0.0365,0.0319,0.0109,0.0017,-0.0154,-0.015,-0.0222,-0.0132,-0.0152,-0.0181,-0.0173,-0.0166,-0.0245,-0.0246,-0.0246,-0.0246,0,0.0017,0.0036,0.0078,0.0156,0.0215,0.0293,0.0373,0.04,0.0477,0.0479,0.0463,0.0371,0.0239,0.0098,-0.0047,-0.0148,-0.0183,-0.0241,-0.0237,-0.0153,-0.0165,-0.019,-0.0181,-0.0253,-0.0252,-0.0251,-0.0251,0,0.0006,0.0027,0.0091,0.0159,0.0235,0.0324,0.0356,0.0421,0.0469,0.0496,0.0475,0.0359,0.029,0.0097,-0.0026,-0.0148,-0.0157,-0.0168,-0.0167,-0.0162,-0.0074,-0.0074,-0.0167,0,0,0,0,0,0.0015,0.0054,0.0108,0.0199,0.0269,0.0327,0.041,0.0444,0.0489,0.0485,0.0495,0.0382,0.0199,0.0112,-0.0016,-0.0064,-0.0188,-0.0218,-0.0202,-0.0288,-0.0281,-0.019,0,0,0,0,0,0,0.0031,0.0079,0.0113,0.0232,0.0293,0.0396,0.0448,0.0475,0.0478,0.0486,0.0383,0.035,0.0158,0.0267,-0.002,-0.0058,-0.0064,-0.0305,-0.0307,-0.0293,-0.0286,-0.028,-0.0184,0,0,0,0,0]}]]